Weather History for KGEG - August, 2013

Change the Weather History Date:

Thursday, August 1, 2013

  Actual Average Record
Temperature  
Mean Temperature 65 °F 72 °F  
Max Temperature 71 °F 86 °F 101 °F (1971)
Min Temperature 59 °F 58 °F 44 °F (1987)
Degree Days  
Heating Degree Days 0 0  
Month to date heating degree days 0 0  
Since 1 June heating degree days 140 168  
Since 1 July heating degree days 0 32  
Cooling Degree Days 0 7  
Month to date cooling degree days 0 7  
Year to date cooling degree days 362 250  
Since 1 June cooling degree days 332 236  
Growing Degree Days 17 (Base 50)    
Moisture  
Dew Point 49 °F    
Average Humidity 61    
Maximum Humidity 84    
Minimum Humidity 37    
Precipitation  
Precipitation 0.04 in 0.02 in 0.51 in (1976)
Month to date precipitation 0.04 0.02  
Year to date precipitation 6.83 9.54  
Snow  
Snow 0.00 in 0.00 in 0.00 in (2002)
Month to date snowfall 0.0 0.0  
Since 1 June snowfall 0.0 0.0  
Since 1 July snowfall 0.0 0.0  
Snow Depth 0.00 in    
Sea Level Pressure  
Sea Level Pressure 29.90 in    
Wind  
Wind Speed 5 mph (South)    
Max Wind Speed 14 mph    
Max Gust Speed 18 mph    
Visibility 10 miles    
Events Rain    
T = Trace of Precipitation, MM = Missing Value Source: NWS Daily Summary

Daily Weather History Graph

Daily Weather History Graph

Search for Another Location

Airport or City:

Trip Planner

Search our weather history database for the weather conditions in past years. The results will help you decide how hot, cold, wet, or windy it might be!

Date:

Astronomy

Aug. 01, 2013 Rise Set
Actual Time 5:27 AM PDT 8:24 PM PDT
Civil Twilight 4:51 AM PDT 8:59 PM PDT
Nautical Twilight 4:05 AM PDT 9:45 PM PDT
Astronomical Twilight 3:09 AM PDT 10:41 PM PDT
Moon 1:05 AM PDT (8/1) 4:39 PM PDT (8/1)
Length of Visible Light 16h 07m
Length of Day
14h 56m
Waning Crescent, 22% of the Moon is Illuminated
Aug 1
Waning Crescent
Aug 6
New
Aug 14
First Quarter
Aug 20
Full
Aug 28
Last Quarter

Hourly Weather History & Observations

Time (PDT) Temp. Dew Point Humidity Pressure Visibility Wind Dir Wind Speed Gust Speed Precip Events Conditions
12:53 AM 69.1 °F 42.1 °F 38% 29.92 in 10.0 mi Calm Calm - N/A   Scattered Clouds
1:53 AM 68.0 °F 42.1 °F 39% 29.89 in 10.0 mi Calm Calm - N/A   Clear
2:53 AM 64.9 °F 42.1 °F 43% 29.89 in 10.0 mi Calm Calm - N/A   Clear
3:53 AM 66.0 °F 42.1 °F 42% 29.88 in 10.0 mi NE 4.6 mph - N/A   Clear
4:53 AM 63.0 °F 42.1 °F 46% 29.87 in 10.0 mi Calm Calm - N/A   Partly Cloudy
5:53 AM 64.9 °F 43.0 °F 45% 29.86 in 10.0 mi Calm Calm - N/A   Partly Cloudy
6:53 AM 68.0 °F 44.1 °F 42% 29.87 in 10.0 mi ENE 3.5 mph - N/A   Scattered Clouds
7:53 AM 69.1 °F 44.1 °F 40% 29.87 in 10.0 mi NNE 4.6 mph - N/A   Mostly Cloudy
8:53 AM 69.1 °F 46.0 °F 44% 29.89 in 10.0 mi SE 3.5 mph - N/A   Mostly Cloudy
9:53 AM 66.0 °F 46.0 °F 48% 29.93 in 10.0 mi South 9.2 mph - N/A   Overcast
10:53 AM 64.0 °F 46.0 °F 52% 29.92 in 10.0 mi South 6.9 mph - N/A   Overcast
11:53 AM 66.9 °F 46.0 °F 47% 29.91 in 10.0 mi SE 3.5 mph - 0.00 in   Overcast
12:53 PM 69.1 °F 48.0 °F 47% 29.92 in 10.0 mi South 8.1 mph - N/A   Overcast
1:53 PM 70.0 °F 48.0 °F 46% 29.93 in 10.0 mi SSE 8.1 mph - N/A   Overcast
2:53 PM 66.9 °F 53.1 °F 61% 29.92 in 9.0 mi WSW 12.7 mph - 0.00 in Rain Light Rain
3:53 PM 66.9 °F 54.0 °F 63% 29.91 in 10.0 mi SE 6.9 mph - 0.01 in   Mostly Cloudy
4:53 PM 68.0 °F 53.1 °F 59% 29.90 in 10.0 mi WSW 3.5 mph - N/A   Mostly Cloudy
5:53 PM 68.0 °F 51.1 °F 55% 29.89 in 10.0 mi WSW 5.8 mph - N/A   Mostly Cloudy
6:53 PM 68.0 °F 48.9 °F 50% 29.88 in 10.0 mi WSW 8.1 mph - N/A   Mostly Cloudy
7:53 PM 66.0 °F 55.0 °F 68% 29.90 in 10.0 mi WSW 9.2 mph - N/A   Overcast
8:53 PM 64.0 °F 55.0 °F 73% 29.92 in 9.0 mi SSW 5.8 mph - 0.00 in Rain Light Rain
9:53 PM 61.0 °F 57.0 °F 87% 29.92 in 10.0 mi WSW 6.9 mph - 0.03 in   Overcast
10:53 PM 61.0 °F 55.9 °F 83% 29.92 in 10.0 mi Calm Calm - N/A   Overcast
11:53 PM 60.1 °F 55.9 °F 86% 29.92 in 10.0 mi SSE 4.6 mph - 0.00 in Rain Light Rain